Location: Azalea Creek
(37.1280°N, 119.2623°W)
Time: 02:27:44
(UTC+00:00)

Cosmos 1777 Rocket - Pass Details

Date: 17 February 2020
Orbit: 758 x 776 km, 74.0° (Epoch: 03 April)

Event Time Altitude Azimuth Distance (km) Brightness Sun altitude
Rises 03:17:53 0° 349° (NNW) 3,260 7.4 -20.6°
Reaches altitude 10° 03:20:24 10° 356° (N) 2,328 6.5 -21.1°
Enters shadow 03:24:49 41° 49° (NE) 1,110 4.5 -21.9°
